{"data":{"norad_id":53509,"intl_designator":"2022-099AW","name":"STARLINK-4402","alt_names":[],"object_type":"PAYLOAD","status":"ACTIVE","operator":null,"country":"US","launch_date":"2022-08-12","launch_site_code":"AFWTR","launch_vehicle":null,"mission":null,"orbit_class":"UNKNOWN","rcs_meters":null,"size_class":null,"mass_kg":null,"dimensions":null,"purposes":["comms"],"wikipedia_slug":null,"has_3d_model":false,"image_url":null,"decayed_at":null,"tle_current":{"epoch":"2026-09-20T22:00:03.000096Z","epoch_age_seconds":42534,"freshness":"FRESH","line1":"1 53509U 22099AW  26263.91670139  .00101972  00000+0  68220-3 0  9999","line2":"2 53509  97.6051  34.5155 0001455  73.1343 298.1591 15.74990757  5959","mean_motion":15.74990757,"eccentricity":0.0001455,"inclination_deg":97.6051,"raan_deg":34.5155,"arg_perigee_deg":73.1343,"mean_anomaly_deg":298.1591,"bstar":0.0006822,"rev_number":595,"period_min":91.429107986822,"perigee_km":343.67931697086,"apogee_km":345.63565016558,"semimajor_km":6722.7944835682,"source":"CELESTRAK","updated_at":"2026-09-21T09:00:32.897570Z"}}}